This is the latest recevied weather packets stored in our database for station/object ZL1CTS-13. If no packets are shown the sender has not sent any weather packets the latest 10 day(s).
| Time | Temp. | Humidity | Pressure | Rain* | Wind** | Luminosity | Snow |
|---|---|---|---|---|---|---|---|
| 1777761604 | 19.44° C | 68% | 1025.2 hPa | 0 mm | - | - | - |
| 1777761004 | 20° C | 68% | 1025.2 hPa | 0 mm | - | - | - |
| 1777760407 | 20° C | 70% | 1025.2 hPa | 0 mm | - | - | - |
| 1777759805 | 19.44° C | 79% | 1025.2 hPa | 0 mm | - | - | - |
| 1777759204 | 18.33° C | 85% | 1025.3 hPa | 0 mm | - | - | - |
| 1777758604 | 17.78° C | 92% | 1025.3 hPa | 0 mm | - | - | - |
| 1777758003 | 16.67° C | 98% | 1025.2 hPa | 0 mm | - | - | - |
| 1777757403 | 15.56° C | 99% | 1025.2 hPa | 0 mm | - | - | - |
| 1777756804 | 12.78° C | 97% | 1025.3 hPa | 0 mm | - | - | - |
| 1777756204 | 11.67° C | 98% | 1025.2 hPa | 0 mm | - | - | - |
| 1777755604 | 11.11° C | 98% | 1025.2 hPa | 0 mm | - | - | - |
| 1777755004 | 11.11° C | 98% | 1025.1 hPa | 0 mm | - | - | - |
| 1777754404 | 10.56° C | 99% | 1025 hPa | 0 mm | - | - | - |
| 1777753804 | 10° C | 99% | 1024.9 hPa | 0 mm | - | - | - |
| 1777753207 | 10° C | 99% | 1025 hPa | 0 mm | - | - | - |
| 1777752605 | 9.44° C | 99% | 1024.9 hPa | 0 mm | - | - | - |
| 1777752004 | 9.44° C | 99% | 1024.8 hPa | 0 mm | - | - | - |
| 1777751404 | 9.44° C | 99% | 1024.8 hPa | 0 mm | - | - | - |
| 1777750804 | 9.44° C | 99% | 1024.7 hPa | 0 mm | - | - | - |
| 1777750204 | 9.44° C | 99% | 1024.7 hPa | 0 mm | - | - | - |
| 1777749604 | 9.44° C | 99% | 1024.5 hPa | 0 mm | - | - | - |
| 1777749004 | 10° C | 99% | 1024.5 hPa | 0 mm | - | - | - |
| 1777748404 | 9.44° C | 99% | 1024.4 hPa | 0 mm | - | - | - |
| 1777747804 | 9.44° C | 99% | 1024.4 hPa | 0 mm | - | - | - |
| 1777747204 | 10° C | 99% | 1024.4 hPa | 0 mm | - | - | - |
* Rain latest hour (hover to see other rain measurements)
** Current wind speed in m/s (hover to see current wind gust speed)